Flag for France Weather past 2 weeks in Reims, France

Now
79 °F

Passing clouds.


Feels Like: 81 °F
Forecast: 53 / 80 °F
Wind: 3 mph from North

Location: Chalons-Vatry

Current Time: Jul 5, 2015 at 11:49:12 AM

Latest Report: Jul 5, 2015 at 11:00 AM


Visibility: N/A

Pressure: 30.01 "Hg

Humidity: 65%

Dew point: 66 °F

Location of ReimsLocation

Historic Weather in Reims — Graph

°F

Reims temperature yesterday

Maximum temperature yesterday: 93 °F (at 1:30 PM)
Minimum temperature yesterday: 66 °F (at 6:00 AM)
Average temperature yesterday: 81 °F

Past Weeks' High & Low Weather Summary

 TemperatureHumidityPressure
High99 °F (Jul 1, 4:30 PM)100% (Jun 22, 9:00 PM)30.24 "Hg (Jun 22, 9:00 PM)
Low43 °F (Jun 23, 3:30 AM)24% (Jun 30, 5:00 PM)29.80 "Hg (Jun 22, 8:00 PM)
Average69 °F63%30.10 "Hg
* Reported Jun 20 11:00 AM — Jul 5 11:00 AM, Reims, Weather by CustomWeather, © 2015

Note: Actual official high and low records may vary slightly from our data, if they occured in-between our weather recording intervals... More about our weather records

Advertising

Reims weather history for previous 24 hours

 ConditionsComfort  
Time TempWeatherWind HumidityBarometerVisibility
11:00 AM
Sun, Jul 5
79 °FPassing clouds.3 mph65%30.01 "HgN/A
10:30 AM77 °FPassing clouds.5 mph69%30.01 "HgN/A
10:00 AM77 °FSunny.3 mph69%30.04 "Hg10 mi
9:30 AM73 °FPassing clouds.6 mph78%30.01 "HgN/A
9:00 AM73 °FSunny.10 mph74%30.01 "Hg10 mi
8:30 AM73 °FSunny.2 mph74%30.07 "Hg10 mi
8:00 AM70 °FSunny.3 mph78%30.07 "Hg10 mi
7:30 AM68 °FClear.2 mph83%30.07 "Hg10 mi
7:00 AM66 °FClear.3 mph88%30.07 "Hg10 mi
6:30 AM66 °FClear.6 mph88%30.07 "Hg10 mi
6:00 AM66 °FClear.7 mph88%30.07 "Hg10 mi
5:30 AM66 °FClear.7 mph88%30.07 "Hg10 mi
5:00 AM66 °FClear.8 mph88%30.07 "Hg10 mi
4:30 AM68 °FClear.8 mph83%30.07 "Hg10 mi
4:00 AM68 °FClear.7 mph83%30.07 "Hg10 mi
3:30 AM68 °FClear.5 mph83%30.09 "Hg10 mi
3:00 AM70 °FClear.5 mph78%30.09 "Hg10 mi
2:30 AM70 °FClear.6 mph78%30.09 "Hg10 mi
2:00 AM70 °FClear.6 mph83%30.09 "Hg10 mi
1:30 AM70 °FClear.6 mph83%30.12 "Hg10 mi
1:00 AM70 °FClear.7 mph83%30.12 "Hg10 mi
12:30 AM72 °FClear.7 mph83%30.12 "Hg10 mi
12:00 AM72 °FClear.8 mph83%30.12 "Hg10 mi
11:30 PM
Sat, Jul 4
73 °FSunny.6 mph83%30.12 "Hg10 mi
11:00 PM75 °FSunny.7 mph78%30.12 "Hg10 mi
10:30 PM75 °FSunny.7 mph78%30.12 "Hg10 mi
10:00 PM77 °FFog.8 mph74%30.12 "Hg2 mi
9:30 PM79 °FPartly sunny.6 mph70%30.12 "HgN/A
9:00 PM79 °FSunny.5 mph70%30.12 "Hg10 mi
8:30 PM82 °FPassing clouds.7 mph62%30.09 "HgN/A
8:00 PM82 °FSunny.8 mph62%30.09 "Hg10 mi
7:30 PM84 °FSunny.10 mph58%30.09 "Hg10 mi
7:00 PM84 °FSunny.12 mph58%30.09 "Hg10 mi
6:30 PM86 °FSunny.5 mph55%30.09 "Hg10 mi
6:00 PM88 °FSunny.7 mph46%30.09 "Hg10 mi
5:30 PM86 °FSunny.1 mph46%30.12 "Hg10 mi
5:00 PM88 °FSunny.3 mph46%30.15 "Hg10 mi
4:30 PM88 °FSunny.7 mph46%30.15 "Hg10 mi
4:00 PM90 °FSunny.8 mph43%30.12 "Hg10 mi
3:30 PM88 °FPassing clouds.8 mph46%30.12 "HgN/A
3:00 PM90 °FHot.13 mph43%30.12 "HgN/A
2:30 PM90 °FHot.17 mph41%30.12 "HgN/A
2:00 PM91 °FSunny.18 mph44%30.12 "Hg10 mi
1:30 PM93 °FPassing clouds.5 mph36%30.09 "HgN/A
1:00 PM91 °FPassing clouds.8 mph38%30.09 "HgN/A
12:30 PM88 °FPartly sunny.8 mph46%30.09 "HgN/A
12:00 PM88 °FWarm.3 mph43%30.12 "HgN/A
11:30 AM88 °FWarm.5 mph43%30.15 "HgN/A
11:00 AM88 °FWarm.6 mph46%30.15 "HgN/A
Weather by CustomWeather, © 2015

See weather overviewHow to use our weather pages